User: anonymous   Login
Location: Ash Swamp
(41.5170°N, 74.6157°W)
Time: 17:45:24
(UTC+00:00)
Language:

Cosmos 2154 Rocket - Orbit

View from above orbital plane
View from above orbital plane
View from above satellite
View from above satellite

Ground track
Ground track

The orbit data is extracted from the following two-line orbital elements,

1 21667U 91059B   20271.52370993  .00000060  00000-0  46782-4 0  9993
2 21667  82.9097 196.7298 0021314 149.7972  23.7727 13.75104715460384
Epoch (UTC): 27 September 2020 12:34:08
Eccentricity: 0.0021314
inclination: 82.9097°
perigee height: 965 km
apogee height: 997 km
right ascension of ascending node: 196.7298°
argument of perigee: 149.7972°
revolutions per day: 13.75104715
mean anomaly at epoch: 23.7727°
orbit number at epoch: 46038

The dashed part of the orbit path shows where the satellite is in the earth's shadow,  

DLR